Regional Weather Roundup
Issued by NWS Wakefield, VA

Home | Current Version | Previous Version | Text Only | Print | Product List | Glossary Off
Versions: 1 2 3 4 5 6 7 8 9 10 11 12 13 14 15 16 17 18 19 20 21 22 23 24 25 26 27 28 29 30 31 32 33 34 35 36 37 38 39 40 41 42 43 44 45 46 47 48 49 50

000
ASUS41 KAKQ 262015
RWRAKQ

REGIONAL WEATHER ROUNDUP
NATIONAL WEATHER SERVICE WAKEFIELD VA
400 PM EDT THU MAY 26 2016

Note: "fair" indicates few or no clouds below 12,000 feet with no
significant weather and/or obstructions to visibility. * = Denotes
station may not report precipitation (e.g., rain,snow,etc.),
thunder or fog.

VAZ042-051-052>054-056-262100-
NORTHERN VIRGINIA

CITY           SKY/WX    TMP DP  RH WIND       PRES   REMARKS
WASH NATIONAL  PTSUNNY   86  66  51 S10       30.04F
DULLES         PTSUNNY   88  62  41 S12       30.04F
FORT BELVOIR   FAIR      88  63  43 VRB7      30.04F
QUANTICO       PTSUNNY   89  62  40 SW8       30.05F
FREDERICKSBRG* NOT AVBL
STAFFORD*      FAIR      88  62  41 S3        30.08F
WARRENTON      FAIR      89  55  31 S7        30.04F
CULPEPER*      FAIR      90  65  44 S8        30.05F
MANASSAS*      SUNNY     88  63  42 SW7       30.04F
LEESBURG*      FAIR      90  66  45 S12G20    30.05F
WINCHESTER     FAIR      88  59  37 S6        30.05F
FRONT ROYAL*   MOCLDY    84  63  48 SW6       30.04F
LURAY*         FAIR      86  61  42 SW9       30.06F
$$

VAZ048-049-060>072-079>083-262100-
CENTRAL AND SOUTH CENTRAL VIRGINIA

CITY           SKY/WX    TMP DP  RH WIND       PRES   REMARKS
RICHMOND       FAIR      88  60  38 S15       30.07F
CHESTERFIELD*  FAIR      90  57  33 W8        30.09S
PETERSBURG*    FAIR      90  58  34 S7        30.08S
HANOVER        FAIR      89  59  36 SW9       30.08F
TAPPAHANNOCK*  FAIR      91  57  31 S10       30.07F
QUINTON*       FAIR      89  58  36 S9        30.07F
CHARLOTTSVILLE FAIR      85  63  47 SW9       30.06F
GORDONSVILLE*  FAIR      86  64  47 SW12      30.06S
ORANGE*        FAIR      90  59  35 SW9G17    30.08S
LOUISA*        FAIR      91  66  43 CALM      30.06F
BUMPASS*       FAIR      88  64  45 SW8       30.06F
FARMVILLE*     NOT AVBL
CREWE*         FAIR      88  63  43 S5        30.09S
FORT PICKETT*  NOT AVBL
CHASE CITY*    FAIR      86  62  44 S5        30.09F
CLARKSVILLE*   FAIR      88  66  48 SW7       30.09F
SOUTH HILL*    FAIR      86  64  46 SW7       30.15F
LAWRENCEVILLE* FAIR      88  62  41 SW5       30.09F
EMPORIA*       FAIR     N/A N/A N/A S9        30.10F
$$

VAZ088>098-262100-
SOUTHEAST VIRGINIA

CITY           SKY/WX    TMP DP  RH WIND       PRES   REMARKS
NORFOLK        PTSUNNY   85  64  49 E6        30.08S
VIRGINIA BEACH FAIR      92  57  30 W7        30.08S
NORFOLK NAVAL  FAIR      89  59  36 W7        30.09F
WEST POINT*    FAIR      89  57  34 SW8       30.09S
SALUDA*        FAIR      88  63  43 W7        30.07F
NEWPORT NEWS   FAIR      88  62  41 S8        30.08F
LANGLEY AFB    FAIR      88  63  42 S9        30.08F
FORT EUSTIS    FAIR      88  60  39 S6        30.06F
WILLIAMSBURG*  FAIR      91  63  38 SW7       30.09S
HR EXEC AP*    FAIR      90  63  40 W8        30.10F
FRANKLIN*      FAIR      87  60  39 SW6       30.09F
US460-WAKEFLD  FAIR      90  59  35 VRB5      30.08F
$$

VAZ020-022-025-037-045-262100-
WEST CENTRAL AND SOUTHWEST VIRGINIA

CITY           SKY/WX    TMP DP  RH WIND       PRES   REMARKS
STAUNTON*      FAIR      84  62  47 S9        30.10F
WAYNESBORO*    FAIR      83  57  40 SW9G16    30.11F
HOT SPRINGS VA CLOUDY    71  63  73 S8        30.22S
LYNCHBURG      FAIR      83  60  45 S6        30.11F
DANVILLE       FAIR      85  63  47 SW8       30.10F
SOUTH BOSTON*  FAIR      87  65  47 W6        30.09F
MARTINSVILLE   FAIR      83  62  48 CALM      30.14F
ROANOKE        PTSUNNY   80  64  58 S9        30.12F
BLACKSBURG     PTSUNNY   74  65  74 W3        30.20F
DUBLIN*        FAIR      81  61  50 SW9       30.18F
MARION*        PTSUNNY   74  60  61 W16       30.23F
HILLSVILLE*    CLOUDY    74  64  70 NW5       30.19F
RICHLANDS*     CLOUDY    71  58  62 W6        30.21F
WISE*          FAIR      75  52  43 SW5       30.21F
ABINGDON*      PTSUNNY   74  63  66 W6        30.19F
$$

MDZ021>025-VAZ099-100-262100-
SOUTHERN MARYLAND AND THE DELMARVA PENINSULA

CITY           SKY/WX    TMP DP  RH WIND       PRES   REMARKS
PATUXENT RIVER FAIR      81  66  60 SE10      30.05F
BAY BRIDGE APT FAIR      86  64  48 S9        30.05F
LEONARDTOWN    FAIR      88  55  33 S6        30.07F
DOVER          FAIR      86  64  47 E13       30.05F
GEORGETOWN     FAIR      90  53  28 SW9G18    30.07S
EASTON         MOSUNNY   90  68  48 SW10      30.09F
CAMBRIDGE      FAIR      86  63  45 S9        30.06F
SALISBURY      FAIR      88  56  33 SW12      30.07F
OCEAN CITY     FAIR      75  66  73 S8        30.09S
WALLOPS ISLAND FAIR      79  68  69 S13       30.10S
ACCOMACK*      FAIR      86  63  45 S9        30.09S
$$

NCZ012>017-030>032-262100-
NORTH CENTRAL AND EASTERN NORTH CAROLINA

CITY           SKY/WX    TMP DP  RH WIND       PRES   REMARKS
ROANOKE RAPIDS FAIR      88  59  37 SW9       30.10S
RALEIGH        PTSUNNY   88  63  43 SW10      30.11F
ELIZABETH CITY FAIR      87  58  37 S12       30.11S
AHOSKIE*       FAIR      88  61  40 S3        30.10F
EDENTON*       FAIR      89  55  31 SW7       30.12
CURRITUCK*     FAIR      88  58  36 S7        30.11S
KILL DEVIL HLS FAIR      87  66  50 S8        30.12S
MANTEO         NOT AVBL
CAPE HATTERAS  FAIR      78  68  71 SW12      30.17S
TARBORO*       FAIR      90  60  37 W8        30.11F
GOLDSBORO      FAIR      87  60  40 SW8       30.10F
WASHINGTON     FAIR      88  61  40 SW5       30.12S
GREENVILLE     FAIR      90  61  37 W8        30.13S
NEW BERN       PTSUNNY   82  64  54 S13       30.14F
WILMINGTON     FAIR      83  63  50 S12       30.15F
$$

VAZ048-262100-
ELSEWHERE

CITY           SKY/WX    TMP DP  RH WIND       PRES   REMARKS
HARRISBURG PA  PTSUNNY   87  59  38 CALM      30.01F
BALTIMORE      FAIR      90  59  35 SW12      30.03F
ANNAPOLIS      FAIR      83  66  56 S12       30.04F
ANDREWS AFB    FAIR      88  64  44 SW10      30.04F
PHILADELPHIA   PTSUNNY   89  53  29 W8        30.05F
HENDERSON NC   FAIR      84  60  44 SW10      30.11F
GREENSBORO     FAIR      85  61  44 SW8       30.11F
ROCKY MOUNT    FAIR      86  60  41 SW5       30.10F
$$

VAZ100-262100-
MARINE

STATION/POSITION TIME  TEMP    WIND        PRES    WAVE   SWELL
                       AIR SEA DIR/SP/G            HT/PER HT/PER
                 (UTC) (F)     (DEG/KT/KT) (MB)    (FT/S) (FT/S)
BRANDYWINE LGT   1900   66     160/ 11/ 12 1018.7F
CAPE MAY NJ      1900   77 65  150/ 10/ 12 1018.5F
LEWES DE         1900   81 63  160/ 10/ 15 1018.4F
15NM E FENWICK I 1950   63 59              1019.0F   2/ 8
OCEAN-CITY-INLET 1900   66 61  210/ 11/ 13 1019.4F
WACHAPREAGUE VA  1900   78 76  180/ 10/ 12 1018.9F
THOMAS POINT MD  2000   73 67  180/ 11/ 12 1018.5F
GOOSES REEF MD   2000   71 68  160/ 12/ 14 1018.6F   2/ 3
COVE POINT MD    1900   70     180/ 12/ 12 1018.9F
SOLOMONS ISLAND  1900   76 66   80/  7/ 10   N/A
BISHOPS HEAD MD  1900   73 79  150/  9/ 10 1018.8F
PINEY POINT MD   1900          130/  6/  6   N/A
POTOMAC MD       2000   73 65  160/  8/ 10 1017.1F   1/ 2
CAMBRIDGE MD     1900   86 64  170/  7/ 13 1017.4F
LEWISETTA VA     1900   87 73  240/ 10/ 12 1017.8F
RAPPAHANNOCK LGT 1900          170/ 12/ 12 1019.6F
STINGRAY PT      1900   72 68  160/ 10/ 12 1019.1F   1/ 2
YORK RVR RNG VA  1900   74     150/  6/  8 1018.4F
YORKTOWN VA      1900   86 67  240/  8/ 11 1018.5F
JAMESTOWN VA     2000   85 72  240/  6/ 10   N/A     0
DOMINION TERM VA 1900   81     220/  7/  8 1019.0F
KIPTOPEKE VA     1900      69  180/ 11/ 12   N/A
CHES BAY BRIDGE  1900   79 65   50/  6/  7 1018.9F
CAPE HENRY VA    1900   82     130/  9/ 13   N/A
CHESAPEAKE LGHT  1900   71     170/ 20/ 21 1019.6F
WILLOUBY STN VA  1900   84     260/  9/  9 1020.0F
CAPE HENRY BUOY  1912      67                N/A     2/ 9
1ST LANDING BUOY 2000   73 70  110/ 10/ 10 1018.8F   1/ 3
CAPE CHARLES BUO 1926      64                N/A     2/ 8   2/ 8
OFFSHORE WE BUOY 1921      62                N/A     2/ 8   2/ 8
64NM E OF VA BCH 1950   64 59  190/ 10/ 10 1020.5S   2/ 9   2/ 9
DUCK PIER NC     1900   74 63  140/ 11/ 12 1019.4F
44100 DUCK FRF   1924      68                N/A     2/ 9
44056 DUCK FRF   1911      68                N/A     2/ 8
OREGON INLET NC  1900   75 74  190/ 17/ 19 1020.9F
HATTERAS NC      1900   77 72  200/  7/ 11 1021.2F
DIAMOND SHLS NC  1950   75 73  230/  6/  8 1021.8F   2/ 9   2/ 9
CAPE C1F1C2F2C3F3C4F4C5F5C6F6C7F7C8M1C9!


USA.gov is the U.S. government's official web portal to all federal, state and local government web resources and services.